Location: Jackson Park
(37.2862°N, 79.9123°W)
Time: 13:21:58
(UTC+00:00)

ISS - Pass Details

Date: 20 April 2026
Orbit: 414 x 424 km, 51.6° (Epoch: 12 May)

Event Time Altitude Azimuth Distance (km) Brightness Sun altitude
Exits shadow 09:39:53 17° 270° (W) 1,130 -2.1 -11.8°
Maximum altitude 09:41:55 33° 327° (NNW) 724 -2.7 -11.4°
Drops below altitude 10° 09:45:02 10° 33° (NNE) 1,504 0.0 -10.8°
Sets 09:47:16 0° 44° (NE) 2,373 1.5 -10.4°
